Regional Weather Roundup
Issued by NWS

Home | Current Version | Previous Version | Graphics & Text | Print | Product List | Glossary On
Versions: 1 2 3 4 5 6 7 8 9 10 11 12 13 14 15 16 17 18 19 20 21 22 23 24 25 26 27 28 29 30 31 32 33 34 35 36 37 38 39 40 41 42 43 44 45 46 47 48 49 50
000
ASUS43 KFSD 280702
RWRSD

WEATHER ROUNDUP FOR SOUTH DAKOTA
NATIONAL WEATHER SERVICE SIOUX FALLS SD
200 AM CDT TUE APR 28 2015

NOTE: "FAIR" INDICATES FEW OR NO CLOUDS BELOW 12,000 FEET WITH NO
SIGNIFICANT WEATHER AND/OR OBSTRUCTIONS TO VISIBILITY.


SDZ001>005-009-010-012>017-280800-
NORTHWEST AND NORTH CENTRAL SOUTH DAKOTA

CITY           SKY/WX    TMP DP  RH WIND       PRES   REMARKS
BUFFALO          N/A     38  35  89 W6        30.27S
FAITH            N/A     43  38  82 NW6       30.33R
MOBRIDGE       CLOUDY    41  39  93 N5        30.29R
$$

SDZ012>016-024>037-041>051-057-063-072>074-280800-
SOUTHWEST AND SOUTH CENTRAL SOUTH DAKOTA

CITY           SKY/WX    TMP DP  RH WIND       PRES   REMARKS
RAPID CTY ARPT CLOUDY    42  38  85 N5        30.34F
PIERRE         CLOUDY    46  43  89 NW5       30.31S
CUSTER         FOG       39  38  96 SW5       30.33S VSB 1/2
ELLSWORTH AFB  CLEAR     41  36  82 N3        30.34S
PHILIP         CLOUDY    45  42  89 W3        30.33F
PINE RIDGE     CLOUDY    44  40  85 CALM      30.35S
WINNER         FAIR      44  39  82 NW10      30.31F
$$

SDZ004>011-016>023-039-040-280800-
NORTHEAST SOUTH DAKOTA

CITY           SKY/WX    TMP DP  RH WIND       PRES   REMARKS
ABERDEEN       CLOUDY    48  43  82 N12       30.27S
WATERTOWN      PTCLDY    44  39  82 N7        30.22S
BROOKINGS      CLEAR     41  28  60 N3        30.22S
SISSETON         N/A     50  43  77 N13       30.23R
$$

SDZ017-020-022-023-036>040-048>070-280800-
SOUTHEAST SOUTH DAKOTA

CITY           SKY/WX    TMP DP  RH WIND       PRES   REMARKS
SIOUX FALLS    CLEAR     42  33  70 CALM      30.20S
HURON          PTCLDY    47  41  80 NW9       30.25S
MITCHELL       CLEAR     48  42  80 NW13      30.24S
YANKTON        PTCLDY    45  36  70 NW10      30.22S
$$

ABBREVIATIONS USED IN REMARKS
   TC - TEMPERATURE IN CELSIUS
  WCI - WIND CHILL INDEX
   HX - HEAT INDEX
  VSB - VISIBILITY



USA.gov is the U.S. government's official web portal to all federal, state and local government web resources and services.